Total_Precipitation_Accumulation
0.36 0.57 1.00 1.67 2.48 3.20 3.35 2.93 2.49 2.22 1.96 1.64 1.16 0.85 0.74 0.71 0.67 0.57 0.51 0.46 0.42 0.43 0.45 0.41 0.40 0.39 0.39 0.40 0.43 0.50 0.56 0.57 0.64 0.67 0.60 0.54 0.49 0.48 0.44 0.40 0.39 0.31 0.27
0.63 1.15 1.97 2.49 2.51 2.43 2.06 1.67 1.49 1.36 1.09 0.81 0.56 0.45 0.41 0.38 0.36 0.34 0.36 0.34 0.29 0.30 0.30 0.30 0.31 0.31 0.28 0.29 0.31 0.34 0.35 0.38 0.48 0.52 0.51 0.43 0.37 0.31 0.23 0.24 0.19 0.17 0.23
1.14 1.78 2.20 2.09 1.55 1.07 0.88 0.81 0.74 0.54 0.39 0.35 0.31 0.27 0.24 0.25 0.23 0.22 0.24 0.24 0.21 0.22 0.23 0.23 0.24 0.27 0.28 0.28 0.31 0.30 0.29 0.28 0.31 0.39 0.48 0.41 0.28 0.24 0.21 0.18 0.15 0.14 0.18
0.82 1.11 1.24 0.99 0.82 0.71 0.63 0.65 0.57 0.34 0.27 0.23 0.19 0.18 0.17 0.19 0.19 0.19 0.19 0.19 0.17 0.18 0.17 0.17 0.16 0.18 0.23 0.28 0.28 0.32 0.31 0.29 0.23 0.27 0.35 0.37 0.34 0.32 0.26 0.23 0.18 0.23 0.23
0.48 0.45 0.44 0.40 0.39 0.40 0.43 0.51 0.50 0.43 0.34 0.28 0.22 0.20 0.18 0.17 0.18 0.19 0.19 0.20 0.20 0.18 0.18 0.18 0.16 0.15 0.15 0.20 0.22 0.29 0.33 0.33 0.28 0.26 0.29 0.32 0.32 0.32 0.30 0.22 0.20 0.24 0.19
0.42 0.34 0.26 0.22 0.24 0.25 0.27 0.33 0.43 0.52 0.49 0.43 0.35 0.29 0.23 0.21 0.19 0.18 0.19 0.19 0.18 0.18 0.17 0.18 0.18 0.19 0.17 0.15 0.15 0.19 0.26 0.32 0.34 0.29 0.28 0.34 0.34 0.33 0.34 0.23 0.17 0.20 0.15
0.45 0.42 0.31 0.23 0.18 0.17 0.15 0.13 0.15 0.24 0.28 0.28 0.30 0.31 0.30 0.26 0.21 0.18 0.15 0.17 0.16 0.16 0.16 0.16 0.17 0.19 0.19 0.19 0.17 0.15 0.19 0.25 0.30 0.29 0.30 0.32 0.31 0.36 0.37 0.28 0.22 0.26 0.26
0.25 0.25 0.19 0.13 0.08 0.06 0.06 0.04 0.04 0.05 0.07 0.09 0.13 0.18 0.21 0.17 0.15 0.21 0.17 0.17 0.21 0.22 0.21 0.16 0.15 0.16 0.18 0.18 0.18 0.16 0.17 0.20 0.25 0.27 0.37 0.36 0.28 0.35 0.36 0.35 0.39 0.39 0.41
0.09 0.10 0.10 0.08 0.06 0.04 0.03 0.03 0.02 0.02 0.02 0.03 0.05 0.09 0.15 0.15 0.14 0.16 0.17 0.16 0.22 0.23 0.21 0.18 0.15 0.14 0.15 0.17 0.18 0.18 0.19 0.22 0.25 0.31 0.40 0.41 0.38 0.39 0.40 0.44 0.53 0.58 0.49
0.07 0.07 0.06 0.06 0.05 0.04 0.04 0.04 0.03 0.02 0.02 0.02 0.03 0.05 0.12 0.15 0.16 0.15 0.17 0.19 0.18 0.18 0.17 0.16 0.13 0.12 0.13 0.15 0.16 0.18 0.22 0.25 0.31 0.38 0.44 0.50 0.50 0.51 0.50 0.51 0.58 0.70 0.67
0.05 0.04 0.04 0.04 0.04 0.03 0.03 0.03 0.03 0.03 0.02 0.02 0.02 0.02 0.06 0.10 0.14 0.18 0.19 0.20 0.19 0.17 0.15 0.14 0.14 0.12 0.12 0.13 0.16 0.18 0.20 0.24 0.30 0.37 0.42 0.46 0.54 0.61 0.62 0.67 0.68 0.70 0.80
0.01 0.01 0.02 0.02 0.02 0.03 0.03 0.04 0.04 0.03 0.03 0.02 0.02 0.01 0.01 0.03 0.06 0.11 0.14 0.16 0.16 0.15 0.15 0.14 0.13 0.10 0.10 0.13 0.18 0.20 0.21 0.23 0.27 0.34 0.44 0.48 0.49 0.55 0.63 0.75 0.78 0.79 0.90
0.00 0.01 0.01 0.02 0.03 0.03 0.03 0.02 0.02 0.02 0.01 0.01 0.01 0.01 0.01 0.01 0.02 0.05 0.08 0.11 0.13 0.14 0.14 0.14 0.12 0.10 0.09 0.10 0.13 0.17 0.21 0.25 0.27 0.31 0.39 0.47 0.55 0.58 0.62 0.72 0.77 0.83 0.98
0.00 0.00 0.01 0.01 0.01 0.01 0.01 0.00 0.00 0.00 0.00 0.01 0.01 0.01 0.02 0.02 0.02 0.02 0.04 0.06 0.09 0.12 0.14 0.15 0.15 0.14 0.12 0.09 0.09 0.10 0.14 0.19 0.24 0.33 0.36 0.41 0.52 0.60 0.64 0.72 0.84 0.93 1.01
0.01 0.01 0.01 0.01 0.01 0.02 0.02 0.02 0.03 0.03 0.04 0.05 0.05 0.06 0.06 0.06 0.05 0.05 0.05 0.06 0.08 0.11 0.15 0.17 0.17 0.17 0.15 0.09 0.09 0.12 0.11 0.14 0.17 0.23 0.30 0.32 0.37 0.47 0.58 0.67 0.77 0.93 1.08
0.04 0.04 0.04 0.03 0.02 0.02 0.02 0.02 0.03 0.03 0.04 0.05 0.05 0.05 0.05 0.05 0.06 0.06 0.06 0.07 0.10 0.15 0.20 0.21 0.22 0.21 0.14 0.10 0.09 0.10 0.11 0.14 0.17 0.20 0.26 0.26 0.27 0.31 0.37 0.48 0.62 0.77 0.92
0.02 0.01 0.01 0.00 0.00 0.00 0.00 0.00 0.01 0.01 0.02 0.03 0.03 0.03 0.05 0.05 0.07 0.07 0.08 0.10 0.14 0.19 0.24 0.26 0.28 0.27 0.27 0.19 0.13 0.09 0.12 0.15 0.19 0.21 0.23 0.19 0.17 0.24 0.27 0.32 0.40 0.51 0.63
0.00 0.00 0.00 0.00 0.00 0.00 0.00 0.00 0.00 0.01 0.01 0.02 0.03 0.04 0.06 0.08 0.09 0.13 0.15 0.19 0.22 0.24 0.27 0.28 0.31 0.34 0.32 0.24 0.16 0.13 0.14 0.18 0.20 0.23 0.24 0.23 0.21 0.22 0.27 0.30 0.30 0.31 0.36
0.00 0.00 0.00 0.00 0.00 0.00 0.00 0.01 0.01 0.01 0.02 0.03 0.05 0.06 0.09 0.11 0.14 0.16 0.22 0.29 0.32 0.30 0.34 0.37 0.39 0.41 0.40 0.31 0.19 0.15 0.18 0.24 0.24 0.25 0.27 0.29 0.24 0.20 0.20 0.27 0.27 0.26 0.26
0.00 0.00 0.00 0.00 0.00 0.01 0.01 0.02 0.02 0.04 0.05 0.07 0.08 0.10 0.14 0.18 0.21 0.24 0.29 0.33 0.38 0.38 0.41 0.44 0.49 0.52 0.52 0.41 0.24 0.19 0.22 0.29 0.31 0.35 0.36 0.34 0.29 0.25 0.18 0.22 0.24 0.22 0.22
0.00 0.00 0.00 0.00 0.01 0.01 0.03 0.06 0.07 0.09 0.10 0.11 0.11 0.13 0.17 0.22 0.25 0.32 0.36 0.38 0.40 0.42 0.46 0.49 0.54 0.61 0.64 0.53 0.28 0.21 0.26 0.34 0.39 0.40 0.40 0.39 0.32 0.25 0.19 0.19 0.22 0.19 0.21
0.00 0.00 0.00 0.00 0.01 0.03 0.07 0.10 0.12 0.12 0.12 0.13 0.14 0.14 0.17 0.18 0.21 0.31 0.35 0.39 0.46 0.48 0.51 0.57 0.64 0.70 0.73 0.64 0.42 0.23 0.23 0.35 0.46 0.50 0.51 0.49 0.41 0.32 0.26 0.20 0.18 0.17 0.19
0.00 0.00 0.00 0.01 0.02 0.05 0.10 0.15 0.13 0.13 0.15 0.16 0.16 0.17 0.18 0.22 0.27 0.33 0.34 0.36 0.40 0.41 0.46 0.61 0.75 0.82 0.83 0.73 0.51 0.32 0.23 0.29 0.42 0.52 0.63 0.61 0.50 0.43 0.37 0.29 0.22 0.19 0.17
0.00 0.00 0.02 0.04 0.06 0.07 0.09 0.12 0.13 0.16 0.20 0.20 0.19 0.20 0.22 0.24 0.28 0.36 0.38 0.37 0.37 0.37 0.42 0.59 0.73 0.83 0.83 0.74 0.55 0.40 0.31 0.32 0.39 0.46 0.57 0.65 0.64 0.59 0.52 0.42 0.29 0.21 0.19
0.01 0.02 0.05 0.09 0.10 0.09 0.09 0.10 0.14 0.22 0.25 0.24 0.23 0.23 0.26 0.28 0.29 0.35 0.38 0.33 0.33 0.30 0.31 0.47 0.69 0.76 0.70 0.57 0.45 0.40 0.41 0.39 0.43 0.50 0.66 0.80 0.82 0.80 0.71 0.57 0.41 0.29 0.25
0.04 0.08 0.12 0.14 0.14 0.13 0.13 0.13 0.19 0.27 0.32 0.30 0.27 0.26 0.27 0.28 0.30 0.34 0.34 0.26 0.19 0.16 0.13 0.18 0.34 0.46 0.42 0.34 0.30 0.28 0.30 0.28 0.29 0.41 0.66 0.89 0.95 0.94 0.87 0.73 0.54 0.40 0.31